Year,Month,Day,Hour,Minute,Value (Times are PST for temperature in C)
2018,09,05,00,00,16.90
2018,09,05,00,01,16.80
2018,09,05,00,02,16.80
2018,09,05,00,03,16.80
2018,09,05,00,04,16.70
2018,09,05,00,05,16.70
2018,09,05,00,06,16.60
2018,09,05,00,07,16.60
2018,09,05,00,08,16.50
2018,09,05,00,09,16.40
2018,09,05,00,10,16.40
2018,09,05,00,11,16.30
2018,09,05,00,12,16.30
2018,09,05,00,13,16.20
2018,09,05,00,14,16.20
2018,09,05,00,15,16.10
2018,09,05,00,16,16.10
2018,09,05,00,17,16.00
2018,09,05,00,18,15.90
2018,09,05,00,19,15.80
2018,09,05,00,20,15.80
2018,09,05,00,21,15.80
2018,09,05,00,22,15.70
2018,09,05,00,23,15.70
2018,09,05,00,24,15.60
2018,09,05,00,25,15.50
2018,09,05,00,26,15.50
2018,09,05,00,27,15.50
2018,09,05,00,28,15.40
2018,09,05,00,29,15.40
2018,09,05,00,30,15.40
2018,09,05,00,31,15.30
2018,09,05,00,32,15.30
2018,09,05,00,33,15.30
2018,09,05,00,34,15.30
2018,09,05,00,35,15.20
2018,09,05,00,36,15.20
2018,09,05,00,37,15.20
2018,09,05,00,38,15.10
2018,09,05,00,39,15.10
2018,09,05,00,40,15.10
2018,09,05,00,41,15.00
2018,09,05,00,42,14.90
2018,09,05,00,43,14.90
2018,09,05,00,44,14.90
2018,09,05,00,45,14.80
2018,09,05,00,46,14.80
2018,09,05,00,47,14.70
2018,09,05,00,48,14.70
2018,09,05,00,49,14.70
2018,09,05,00,50,14.60
2018,09,05,00,51,14.60
2018,09,05,00,52,14.60
2018,09,05,00,53,14.60
2018,09,05,00,54,14.50
2018,09,05,00,55,14.50
2018,09,05,00,56,14.50
2018,09,05,00,57,14.40
2018,09,05,00,58,14.40
2018,09,05,00,59,14.40
2018,09,05,01,00,14.40
2018,09,05,01,01,14.40
2018,09,05,01,02,14.40
2018,09,05,01,03,14.40
2018,09,05,01,04,14.40
2018,09,05,01,05,14.40
2018,09,05,01,06,14.30
2018,09,05,01,07,14.30
2018,09,05,01,08,14.30
2018,09,05,01,09,14.30
2018,09,05,01,10,14.30
2018,09,05,01,11,14.20
2018,09,05,01,12,14.20
2018,09,05,01,13,14.10
2018,09,05,01,14,14.10
2018,09,05,01,15,14.10
2018,09,05,01,16,14.00
2018,09,05,01,17,14.00
2018,09,05,01,18,13.90
2018,09,05,01,19,13.80
2018,09,05,01,20,13.80
2018,09,05,01,21,13.70
2018,09,05,01,22,13.60
2018,09,05,01,23,13.60
2018,09,05,01,24,13.50
2018,09,05,01,25,13.50
2018,09,05,01,26,13.40
2018,09,05,01,27,13.50
2018,09,05,01,28,13.60
2018,09,05,01,29,13.60
2018,09,05,01,30,13.70
2018,09,05,01,31,13.70
2018,09,05,01,32,13.80
2018,09,05,01,33,13.80
2018,09,05,01,34,13.90
2018,09,05,01,35,14.00
2018,09,05,01,36,14.00
2018,09,05,01,37,14.10
2018,09,05,01,38,14.20
2018,09,05,01,39,14.20
2018,09,05,01,40,14.30
2018,09,05,01,41,14.30
2018,09,05,01,42,14.30
2018,09,05,01,43,14.30
2018,09,05,01,44,14.30
2018,09,05,01,45,14.40
2018,09,05,01,46,14.40
2018,09,05,01,47,14.50
2018,09,05,01,48,14.50
2018,09,05,01,49,14.60
2018,09,05,01,50,14.60
2018,09,05,01,51,14.60
2018,09,05,01,52,14.70
2018,09,05,01,53,14.70
2018,09,05,01,54,14.80
2018,09,05,01,55,14.90
2018,09,05,01,56,14.90
2018,09,05,01,57,15.00
2018,09,05,01,58,15.00
2018,09,05,01,59,15.00
2018,09,05,02,00,15.10
2018,09,05,02,01,15.10
2018,09,05,02,02,15.10
2018,09,05,02,03,15.10
2018,09,05,02,04,15.00
2018,09,05,02,05,15.00
2018,09,05,02,06,15.00
2018,09,05,02,07,14.90
2018,09,05,02,08,14.90
2018,09,05,02,09,14.90
2018,09,05,02,10,14.80
2018,09,05,02,11,14.80
2018,09,05,02,12,14.70
2018,09,05,02,13,14.70
2018,09,05,02,14,14.60
2018,09,05,02,15,14.60
2018,09,05,02,16,14.50
2018,09,05,02,17,14.40
2018,09,05,02,18,14.40
2018,09,05,02,19,14.30
2018,09,05,02,20,14.30
2018,09,05,02,21,14.20
2018,09,05,02,22,14.10
2018,09,05,02,23,14.10
2018,09,05,02,24,14.00
2018,09,05,02,25,14.00
2018,09,05,02,26,13.90
2018,09,05,02,27,13.90
2018,09,05,02,28,13.80
2018,09,05,02,29,13.80
2018,09,05,02,30,13.70
2018,09,05,02,31,13.70
2018,09,05,02,32,13.60
2018,09,05,02,33,13.60
2018,09,05,02,34,13.50
2018,09,05,02,35,13.50
2018,09,05,02,36,13.40
2018,09,05,02,37,13.40
2018,09,05,02,38,13.30
2018,09,05,02,39,13.30
2018,09,05,02,40,13.30
2018,09,05,02,41,13.30
2018,09,05,02,42,13.20
2018,09,05,02,43,13.20
2018,09,05,02,44,13.20
2018,09,05,02,45,13.20
2018,09,05,02,46,13.20
2018,09,05,02,47,13.30
2018,09,05,02,48,13.40
2018,09,05,02,49,13.50
2018,09,05,02,50,13.50
2018,09,05,02,51,13.60
2018,09,05,02,52,13.70
2018,09,05,02,53,13.80
2018,09,05,02,54,13.80
2018,09,05,02,55,14.00
2018,09,05,02,56,14.00
2018,09,05,02,57,14.10
2018,09,05,02,58,14.10
2018,09,05,02,59,14.20
2018,09,05,03,00,14.10
2018,09,05,03,01,14.10
2018,09,05,03,02,14.10
2018,09,05,03,03,14.10
2018,09,05,03,04,14.10
2018,09,05,03,05,14.00
2018,09,05,03,06,14.00
2018,09,05,03,07,14.00
2018,09,05,03,08,13.90
2018,09,05,03,09,13.90
2018,09,05,03,10,13.80
2018,09,05,03,11,13.80
2018,09,05,03,12,13.80
2018,09,05,03,13,13.80
2018,09,05,03,14,13.70
2018,09,05,03,15,13.70
2018,09,05,03,16,13.70
2018,09,05,03,17,13.60
2018,09,05,03,18,13.60
2018,09,05,03,19,13.60
2018,09,05,03,20,13.60
2018,09,05,03,21,13.50
2018,09,05,03,22,13.50
2018,09,05,03,23,13.50
2018,09,05,03,24,13.50
2018,09,05,03,25,13.40
2018,09,05,03,26,13.40
2018,09,05,03,27,13.40
2018,09,05,03,28,13.30
2018,09,05,03,29,13.30
2018,09,05,03,30,13.20
2018,09,05,03,31,13.20
2018,09,05,03,32,13.10
2018,09,05,03,33,13.10
2018,09,05,03,34,13.00
2018,09,05,03,35,13.00
2018,09,05,03,36,13.00
2018,09,05,03,37,13.00
2018,09,05,03,38,13.00
2018,09,05,03,39,13.10
2018,09,05,03,40,13.10
2018,09,05,03,41,13.20
2018,09,05,03,42,13.20
2018,09,05,03,43,13.30
2018,09,05,03,44,13.40
2018,09,05,03,45,13.60
2018,09,05,03,46,13.70
2018,09,05,03,47,13.70
2018,09,05,03,48,13.80
2018,09,05,03,49,13.80
2018,09,05,03,50,13.90
2018,09,05,03,51,13.90
2018,09,05,03,52,13.90
2018,09,05,03,53,13.90
2018,09,05,03,54,13.90
2018,09,05,03,55,13.90
2018,09,05,03,56,13.90
2018,09,05,03,57,13.90
2018,09,05,03,58,13.80
2018,09,05,03,59,13.90
2018,09,05,04,00,13.90
2018,09,05,04,01,14.00
2018,09,05,04,02,14.00
2018,09,05,04,03,14.10
2018,09,05,04,04,14.10
2018,09,05,04,05,14.10
2018,09,05,04,06,14.20
2018,09,05,04,07,14.30
2018,09,05,04,08,14.50
2018,09,05,04,09,14.60
2018,09,05,04,10,14.80
2018,09,05,04,11,14.90
2018,09,05,04,12,15.00
2018,09,05,04,13,15.10
2018,09,05,04,14,15.10
2018,09,05,04,15,15.20
2018,09,05,04,16,15.20
2018,09,05,04,17,15.20
2018,09,05,04,18,15.20
2018,09,05,04,19,15.20
2018,09,05,04,20,15.20
2018,09,05,04,21,15.20
2018,09,05,04,22,15.20
2018,09,05,04,23,15.20
2018,09,05,04,24,15.20
2018,09,05,04,25,15.20
2018,09,05,04,26,15.20
2018,09,05,04,27,15.20
2018,09,05,04,28,15.30
2018,09,05,04,29,15.30
2018,09,05,04,30,15.40
2018,09,05,04,31,15.40
2018,09,05,04,32,15.40
2018,09,05,04,33,15.40
2018,09,05,04,34,15.40
2018,09,05,04,35,15.40
2018,09,05,04,36,15.30
2018,09,05,04,37,15.40
2018,09,05,04,38,15.40
2018,09,05,04,39,15.40
2018,09,05,04,40,15.50
2018,09,05,04,41,15.50
2018,09,05,04,42,15.50
2018,09,05,04,43,15.50
2018,09,05,04,44,15.40
2018,09,05,04,45,15.40
2018,09,05,04,46,15.40
2018,09,05,04,47,15.30
2018,09,05,04,48,15.30
2018,09,05,04,49,15.40
2018,09,05,04,50,15.40
2018,09,05,04,51,15.50
2018,09,05,04,52,15.60
2018,09,05,04,53,15.70
2018,09,05,04,54,15.70
2018,09,05,04,55,15.70
2018,09,05,04,56,15.70
2018,09,05,04,57,15.80
2018,09,05,04,58,15.80
2018,09,05,04,59,15.80
2018,09,05,05,00,15.80
2018,09,05,05,01,15.80
2018,09,05,05,02,15.90
2018,09,05,05,03,15.90
2018,09,05,05,04,15.90
2018,09,05,05,05,15.90
2018,09,05,05,06,16.00
2018,09,05,05,07,16.00
2018,09,05,05,08,16.00
2018,09,05,05,09,16.10
2018,09,05,05,10,16.10
2018,09,05,05,11,16.10
2018,09,05,05,12,16.10
2018,09,05,05,13,16.10
2018,09,05,05,14,16.10
2018,09,05,05,15,16.10
2018,09,05,05,16,16.10
2018,09,05,05,17,16.10
2018,09,05,05,18,16.10
2018,09,05,05,19,16.10
2018,09,05,05,20,16.10
2018,09,05,05,21,16.10
2018,09,05,05,22,16.10
2018,09,05,05,23,16.10
2018,09,05,05,24,16.10
2018,09,05,05,25,16.00
2018,09,05,05,26,16.10
2018,09,05,05,27,16.10
2018,09,05,05,28,16.00
2018,09,05,05,29,16.00
2018,09,05,05,30,16.10
2018,09,05,05,31,16.10
2018,09,05,05,32,16.10
2018,09,05,05,33,16.10
2018,09,05,05,34,16.00
2018,09,05,05,35,16.00
2018,09,05,05,36,15.90
2018,09,05,05,37,15.90
2018,09,05,05,38,15.80
2018,09,05,05,39,15.80
2018,09,05,05,40,15.80
2018,09,05,05,41,15.70
2018,09,05,05,42,15.80
2018,09,05,05,43,15.80
2018,09,05,05,44,15.70
2018,09,05,05,45,15.70
2018,09,05,05,46,15.70
2018,09,05,05,47,15.80
2018,09,05,05,48,15.80
2018,09,05,05,49,15.80
2018,09,05,05,50,15.80
2018,09,05,05,51,15.80
2018,09,05,05,52,15.80
2018,09,05,05,53,15.80
2018,09,05,05,54,15.80
2018,09,05,05,55,15.80
2018,09,05,05,56,15.80
2018,09,05,05,57,15.80
2018,09,05,05,58,15.80
2018,09,05,05,59,15.80
2018,09,05,06,00,15.80
2018,09,05,06,01,15.80
2018,09,05,06,02,15.80
2018,09,05,06,03,15.80
2018,09,05,06,04,15.80
2018,09,05,06,05,15.80
2018,09,05,06,06,15.70
2018,09,05,06,07,15.70
2018,09,05,06,08,15.70
2018,09,05,06,09,15.70
2018,09,05,06,10,15.70
2018,09,05,06,11,15.80
2018,09,05,06,12,15.80
2018,09,05,06,13,15.80
2018,09,05,06,14,15.80
2018,09,05,06,15,15.70
2018,09,05,06,16,15.70
2018,09,05,06,17,15.60
2018,09,05,06,18,15.60
2018,09,05,06,19,15.60
2018,09,05,06,20,15.60
2018,09,05,06,21,15.60
2018,09,05,06,22,15.60
2018,09,05,06,23,15.60
2018,09,05,06,24,15.60
2018,09,05,06,25,15.60
2018,09,05,06,26,15.60
2018,09,05,06,27,15.60
2018,09,05,06,28,15.60
2018,09,05,06,29,15.70
2018,09,05,06,30,15.70
2018,09,05,06,31,15.70
2018,09,05,06,32,15.70
2018,09,05,06,33,15.70
2018,09,05,06,34,15.70
2018,09,05,06,35,15.70
2018,09,05,06,36,15.70
2018,09,05,06,37,15.70
2018,09,05,06,38,15.70
2018,09,05,06,39,15.70
2018,09,05,06,40,15.70
2018,09,05,06,41,15.70
2018,09,05,06,42,15.70
2018,09,05,06,43,15.70
2018,09,05,06,44,15.70
2018,09,05,06,45,15.70
2018,09,05,06,46,15.70
2018,09,05,06,47,15.70
2018,09,05,06,48,15.60
2018,09,05,06,49,15.60
2018,09,05,06,50,15.50
2018,09,05,06,51,15.50
2018,09,05,06,52,15.50
2018,09,05,06,53,15.50
2018,09,05,06,54,15.40
2018,09,05,06,55,15.50
2018,09,05,06,56,15.50
2018,09,05,06,57,15.50
2018,09,05,06,58,15.50
2018,09,05,06,59,15.50
2018,09,05,07,00,15.40
2018,09,05,07,01,15.40
2018,09,05,07,02,15.40
2018,09,05,07,03,15.30
2018,09,05,07,04,15.20
2018,09,05,07,05,15.20
2018,09,05,07,06,15.10
2018,09,05,07,07,15.00
2018,09,05,07,08,14.90
2018,09,05,07,09,14.90
2018,09,05,07,10,14.90
2018,09,05,07,11,14.80
2018,09,05,07,12,14.70
2018,09,05,07,13,14.70
2018,09,05,07,14,14.60
2018,09,05,07,15,14.60
2018,09,05,07,16,14.50
2018,09,05,07,17,14.50
2018,09,05,07,18,14.40
2018,09,05,07,19,14.30
2018,09,05,07,20,14.30
2018,09,05,07,21,14.30
2018,09,05,07,22,14.20
2018,09,05,07,23,14.10
2018,09,05,07,24,14.10
2018,09,05,07,25,14.00
2018,09,05,07,26,14.00
2018,09,05,07,27,13.90
2018,09,05,07,28,13.80
2018,09,05,07,29,13.70
2018,09,05,07,30,13.70
2018,09,05,07,31,13.60
2018,09,05,07,32,13.50
2018,09,05,07,33,13.50
2018,09,05,07,34,13.40
2018,09,05,07,35,13.40
2018,09,05,07,36,13.30
2018,09,05,07,37,13.30
2018,09,05,07,38,13.30
2018,09,05,07,39,13.30
2018,09,05,07,40,13.30
2018,09,05,07,41,13.20
2018,09,05,07,42,13.20
2018,09,05,07,43,13.20
2018,09,05,07,44,13.20
2018,09,05,07,45,13.20
2018,09,05,07,46,13.20
2018,09,05,07,47,13.20
2018,09,05,07,48,13.30
2018,09,05,07,49,13.20
2018,09,05,07,50,13.20
2018,09,05,07,51,13.30
2018,09,05,07,52,13.30
2018,09,05,07,53,13.30
2018,09,05,07,54,13.30
2018,09,05,07,55,13.30
2018,09,05,07,56,13.40
2018,09,05,07,57,13.40
2018,09,05,07,58,13.40
2018,09,05,07,59,13.40
2018,09,05,08,00,13.40
2018,09,05,08,01,13.40
2018,09,05,08,02,13.40
2018,09,05,08,03,13.50
2018,09,05,08,04,13.50
2018,09,05,08,05,13.50
2018,09,05,08,06,13.60
2018,09,05,08,07,13.60
2018,09,05,08,08,13.60
2018,09,05,08,09,13.70
2018,09,05,08,10,13.70
2018,09,05,08,11,13.70
2018,09,05,08,12,13.70
2018,09,05,08,13,13.70
2018,09,05,08,14,13.80
2018,09,05,08,15,13.80
2018,09,05,08,16,13.80
2018,09,05,08,17,13.80
2018,09,05,08,18,13.80
2018,09,05,08,19,13.80
2018,09,05,08,20,13.90
2018,09,05,08,21,13.90
2018,09,05,08,22,13.90
2018,09,05,08,23,13.90
2018,09,05,08,24,13.90
2018,09,05,08,25,14.00
2018,09,05,08,26,14.00
2018,09,05,08,27,14.00
2018,09,05,08,28,14.10
2018,09,05,08,29,14.10
2018,09,05,08,30,14.10
2018,09,05,08,31,14.20
2018,09,05,08,32,14.30
2018,09,05,08,33,14.40
2018,09,05,08,34,14.50
2018,09,05,08,35,14.60
2018,09,05,08,36,14.70
2018,09,05,08,37,14.80
2018,09,05,08,38,14.90
2018,09,05,08,39,14.90
2018,09,05,08,40,15.00
2018,09,05,08,41,15.00
2018,09,05,08,42,15.00
2018,09,05,08,43,15.10
2018,09,05,08,44,15.10
2018,09,05,08,45,15.20
2018,09,05,08,46,15.20
2018,09,05,08,47,15.20
2018,09,05,08,48,15.30
2018,09,05,08,49,15.30
2018,09,05,08,50,15.40
2018,09,05,08,51,15.40
2018,09,05,08,52,15.30
2018,09,05,08,53,15.30
2018,09,05,08,54,15.30
2018,09,05,08,55,15.30
2018,09,05,08,56,15.30
2018,09,05,08,57,15.30
2018,09,05,08,58,15.30
2018,09,05,08,59,15.40
2018,09,05,09,00,15.40
2018,09,05,09,01,15.50
2018,09,05,09,02,15.70
2018,09,05,09,03,15.80
2018,09,05,09,04,16.00
2018,09,05,09,05,16.20
2018,09,05,09,06,16.30
2018,09,05,09,07,16.40
2018,09,05,09,08,16.50
2018,09,05,09,09,16.60
2018,09,05,09,10,16.70
2018,09,05,09,11,16.70
2018,09,05,09,12,16.80
2018,09,05,09,13,16.90
2018,09,05,09,14,17.00
2018,09,05,09,15,17.00
2018,09,05,09,16,17.10
2018,09,05,09,17,17.10
2018,09,05,09,18,17.20
2018,09,05,09,19,17.20
2018,09,05,09,20,17.20
2018,09,05,09,21,17.20
2018,09,05,09,22,17.30
2018,09,05,09,23,17.30
2018,09,05,09,24,17.30
2018,09,05,09,25,17.40
2018,09,05,09,26,17.50
2018,09,05,09,27,17.50
2018,09,05,09,28,17.60
2018,09,05,09,29,17.60
2018,09,05,09,30,17.60
2018,09,05,09,31,17.70
2018,09,05,09,32,17.80
2018,09,05,09,33,17.90
2018,09,05,09,34,17.90
2018,09,05,09,35,17.90
2018,09,05,09,36,17.90
2018,09,05,09,37,18.00
2018,09,05,09,38,18.00
2018,09,05,09,39,18.00
2018,09,05,09,40,18.00
2018,09,05,09,41,18.10
2018,09,05,09,42,18.10
2018,09,05,09,43,18.10
2018,09,05,09,44,18.20
2018,09,05,09,45,18.20
2018,09,05,09,46,18.20
2018,09,05,09,47,18.20
2018,09,05,09,48,18.30
2018,09,05,09,49,18.30
2018,09,05,09,50,18.30
2018,09,05,09,51,18.30
2018,09,05,09,52,18.30
2018,09,05,09,53,18.30
2018,09,05,09,54,18.40
2018,09,05,09,55,18.40
2018,09,05,09,56,18.40
2018,09,05,09,57,18.40
2018,09,05,09,58,18.30
2018,09,05,09,59,18.30
2018,09,05,10,00,18.30
2018,09,05,10,01,18.30
2018,09,05,10,02,18.30
2018,09,05,10,03,18.30
2018,09,05,10,04,18.30
2018,09,05,10,05,18.30
2018,09,05,10,06,18.30
2018,09,05,10,07,18.30
2018,09,05,10,08,18.30
2018,09,05,10,09,18.30
2018,09,05,10,10,18.30
2018,09,05,10,11,18.30
2018,09,05,10,12,18.40
2018,09,05,10,13,18.40
2018,09,05,10,14,18.40
2018,09,05,10,15,18.50
2018,09,05,10,16,18.50
2018,09,05,10,17,18.50
2018,09,05,10,18,18.60
2018,09,05,10,19,18.50
2018,09,05,10,20,18.50
2018,09,05,10,21,18.50
2018,09,05,10,22,18.50
2018,09,05,10,23,18.50
2018,09,05,10,24,18.60
2018,09,05,10,25,18.70
2018,09,05,10,26,18.70
2018,09,05,10,27,18.70
2018,09,05,10,28,18.70
2018,09,05,10,29,18.80
2018,09,05,10,30,18.80
2018,09,05,10,31,18.80
2018,09,05,10,32,18.80
2018,09,05,10,33,18.90
2018,09,05,10,34,18.90
2018,09,05,10,35,18.90
2018,09,05,10,36,19.00
2018,09,05,10,37,19.00
2018,09,05,10,38,19.10
2018,09,05,10,39,19.10
2018,09,05,10,40,19.10
2018,09,05,10,41,19.20
2018,09,05,10,42,19.30
2018,09,05,10,43,19.30
2018,09,05,10,44,19.40
2018,09,05,10,45,19.40
2018,09,05,10,46,19.40
2018,09,05,10,47,19.40
2018,09,05,10,48,19.50
2018,09,05,10,49,19.60
2018,09,05,10,50,19.70
2018,09,05,10,51,19.80
2018,09,05,10,52,19.90
2018,09,05,10,53,19.90
2018,09,05,10,54,20.00
2018,09,05,10,55,20.00
2018,09,05,10,56,19.90
2018,09,05,10,57,19.90
2018,09,05,10,58,19.90
2018,09,05,10,59,19.80
2018,09,05,11,00,19.60
2018,09,05,11,01,19.50
2018,09,05,11,02,19.50
2018,09,05,11,03,19.50
2018,09,05,11,04,19.40
2018,09,05,11,05,19.40
2018,09,05,11,06,19.40
2018,09,05,11,07,19.50
2018,09,05,11,08,19.40
2018,09,05,11,09,19.50
2018,09,05,11,10,19.50
2018,09,05,11,11,19.60
2018,09,05,11,12,19.60
2018,09,05,11,13,19.60
2018,09,05,11,14,19.60
2018,09,05,11,15,19.50
2018,09,05,11,16,19.40
2018,09,05,11,17,19.40
2018,09,05,11,18,19.40
2018,09,05,11,19,19.40
2018,09,05,11,20,19.50
2018,09,05,11,21,19.60
2018,09,05,11,22,19.60
2018,09,05,11,23,19.60
2018,09,05,11,24,19.60
2018,09,05,11,25,19.70
2018,09,05,11,26,19.70
2018,09,05,11,27,19.70
2018,09,05,11,28,19.70
2018,09,05,11,29,19.70
2018,09,05,11,30,19.70
2018,09,05,11,31,19.80
2018,09,05,11,32,19.80
2018,09,05,11,33,19.80
2018,09,05,11,34,19.80
2018,09,05,11,35,19.80
2018,09,05,11,36,19.80
2018,09,05,11,37,19.70
2018,09,05,11,38,19.70
2018,09,05,11,39,19.70
2018,09,05,11,40,19.80
2018,09,05,11,41,19.90
2018,09,05,11,42,20.00
2018,09,05,11,43,20.10
2018,09,05,11,44,20.30
2018,09,05,11,45,20.40
2018,09,05,11,46,20.40
2018,09,05,11,47,20.50
2018,09,05,11,48,20.50
2018,09,05,11,49,20.60
2018,09,05,11,50,20.70
2018,09,05,11,51,20.70
2018,09,05,11,52,20.80
2018,09,05,11,53,20.80
2018,09,05,11,54,20.70
2018,09,05,11,55,20.70
2018,09,05,11,56,20.70
2018,09,05,11,57,20.70
2018,09,05,11,58,20.70
2018,09,05,11,59,20.60
2018,09,05,12,00,20.60
2018,09,05,12,01,20.50
2018,09,05,12,02,20.50
2018,09,05,12,03,20.50
2018,09,05,12,04,20.50
2018,09,05,12,05,20.50
2018,09,05,12,06,20.40
2018,09,05,12,07,20.40
2018,09,05,12,08,20.40
2018,09,05,12,09,20.40
2018,09,05,12,10,20.40
2018,09,05,12,11,20.40
2018,09,05,12,12,20.50
2018,09,05,12,13,20.40
2018,09,05,12,14,20.50
2018,09,05,12,15,20.50
2018,09,05,12,16,20.60
2018,09,05,12,17,20.60
2018,09,05,12,18,20.60
2018,09,05,12,19,20.60
2018,09,05,12,20,20.70
2018,09,05,12,21,20.70
2018,09,05,12,22,20.70
2018,09,05,12,23,20.70
2018,09,05,12,24,20.80
2018,09,05,12,25,20.80
2018,09,05,12,26,20.80
2018,09,05,12,27,20.80
2018,09,05,12,28,20.80
2018,09,05,12,29,20.70
2018,09,05,12,30,20.70
2018,09,05,12,31,20.80
2018,09,05,12,32,20.80
2018,09,05,12,33,20.80
2018,09,05,12,34,20.80
2018,09,05,12,35,20.90
2018,09,05,12,36,20.90
2018,09,05,12,37,21.00
2018,09,05,12,38,21.10
2018,09,05,12,39,21.20
2018,09,05,12,40,21.30
2018,09,05,12,41,21.40
2018,09,05,12,42,21.40
2018,09,05,12,43,21.40
2018,09,05,12,44,21.30
2018,09,05,12,45,21.20
2018,09,05,12,46,21.30
2018,09,05,12,47,21.30
2018,09,05,12,48,21.30
2018,09,05,12,49,21.30
2018,09,05,12,50,21.40
2018,09,05,12,51,21.50
2018,09,05,12,52,21.60
2018,09,05,12,53,21.70
2018,09,05,12,54,21.70
2018,09,05,12,55,21.70
2018,09,05,12,56,21.80
2018,09,05,12,57,21.80
2018,09,05,12,58,21.80
2018,09,05,12,59,21.70
2018,09,05,13,00,21.60
2018,09,05,13,01,21.60
2018,09,05,13,02,21.60
2018,09,05,13,03,21.60
2018,09,05,13,04,21.60
2018,09,05,13,05,21.60
2018,09,05,13,06,21.60
2018,09,05,13,07,21.60
2018,09,05,13,08,21.50
2018,09,05,13,09,21.40
2018,09,05,13,10,21.40
2018,09,05,13,11,21.40
2018,09,05,13,12,21.50
2018,09,05,13,13,21.70
2018,09,05,13,14,21.70
2018,09,05,13,15,21.90
2018,09,05,13,16,22.00
2018,09,05,13,17,22.00
2018,09,05,13,18,22.00
2018,09,05,13,19,22.00
2018,09,05,13,20,22.00
2018,09,05,13,21,22.00
2018,09,05,13,22,22.00
2018,09,05,13,23,21.90
2018,09,05,13,24,22.00
2018,09,05,13,25,22.00
2018,09,05,13,26,21.90
2018,09,05,13,27,21.90
2018,09,05,13,28,21.90
2018,09,05,13,29,21.80
2018,09,05,13,30,21.80
2018,09,05,13,31,21.70
2018,09,05,13,32,21.70
2018,09,05,13,33,21.80
2018,09,05,13,34,21.80
2018,09,05,13,35,21.80
2018,09,05,13,36,21.80
2018,09,05,13,37,21.90
2018,09,05,13,38,21.90
2018,09,05,13,39,22.00
2018,09,05,13,40,22.00
2018,09,05,13,41,22.10
2018,09,05,13,42,22.10
2018,09,05,13,43,22.10
2018,09,05,13,44,22.20
2018,09,05,13,45,22.20
2018,09,05,13,46,22.30
2018,09,05,13,47,22.20
2018,09,05,13,48,22.20
2018,09,05,13,49,22.20
2018,09,05,13,50,22.10
2018,09,05,13,51,22.10
2018,09,05,13,52,22.10
2018,09,05,13,53,22.00
2018,09,05,13,54,22.10
2018,09,05,13,55,22.10
2018,09,05,13,56,22.10
2018,09,05,13,57,22.10
2018,09,05,13,58,22.10
2018,09,05,13,59,22.10
2018,09,05,14,00,22.10
2018,09,05,14,01,22.10
2018,09,05,14,02,22.10
2018,09,05,14,03,22.00
2018,09,05,14,04,21.90
2018,09,05,14,05,21.90
2018,09,05,14,06,22.00
2018,09,05,14,07,22.00
2018,09,05,14,08,22.20
2018,09,05,14,09,22.20
2018,09,05,14,10,22.20
2018,09,05,14,11,22.20
2018,09,05,14,12,22.20
2018,09,05,14,13,22.30
2018,09,05,14,14,22.30
2018,09,05,14,15,22.40
2018,09,05,14,16,22.40
2018,09,05,14,17,22.50
2018,09,05,14,18,22.50
2018,09,05,14,19,22.60
2018,09,05,14,20,22.70
2018,09,05,14,21,22.80
2018,09,05,14,22,22.90
2018,09,05,14,23,23.00
2018,09,05,14,24,23.10
2018,09,05,14,25,23.10
2018,09,05,14,26,23.00
2018,09,05,14,27,23.00
2018,09,05,14,28,23.00
2018,09,05,14,29,23.00
2018,09,05,14,30,23.00
2018,09,05,14,31,23.00
2018,09,05,14,32,23.00
2018,09,05,14,33,23.10
2018,09,05,14,34,23.10
2018,09,05,14,35,23.20
2018,09,05,14,36,23.20
2018,09,05,14,37,23.20
2018,09,05,14,38,23.30
2018,09,05,14,39,23.40
2018,09,05,14,40,23.40
2018,09,05,14,41,23.40
2018,09,05,14,42,23.30
2018,09,05,14,43,23.30
2018,09,05,14,44,23.30
2018,09,05,14,45,23.30
2018,09,05,14,46,23.40
2018,09,05,14,47,23.50
2018,09,05,14,48,23.60
2018,09,05,14,49,23.60
2018,09,05,14,50,23.60
2018,09,05,14,51,23.60
2018,09,05,14,52,23.60
2018,09,05,14,53,23.60
2018,09,05,14,54,23.70
2018,09,05,14,55,23.60
2018,09,05,14,56,23.60
2018,09,05,14,57,23.60
2018,09,05,14,58,23.60
2018,09,05,14,59,23.60
2018,09,05,15,00,23.60
2018,09,05,15,01,23.60
2018,09,05,15,02,23.60
2018,09,05,15,03,23.60
2018,09,05,15,04,23.70
2018,09,05,15,05,23.70
2018,09,05,15,06,23.70
2018,09,05,15,07,23.80
2018,09,05,15,08,23.80
2018,09,05,15,09,23.80
2018,09,05,15,10,23.90
2018,09,05,15,11,24.00
2018,09,05,15,12,24.00
2018,09,05,15,13,24.10
2018,09,05,15,14,24.10
2018,09,05,15,15,24.10
2018,09,05,15,16,24.10
2018,09,05,15,17,24.00
2018,09,05,15,18,24.00
2018,09,05,15,19,24.00
2018,09,05,15,20,24.10
2018,09,05,15,21,24.20
2018,09,05,15,22,24.30
2018,09,05,15,23,24.20
2018,09,05,15,24,24.20
2018,09,05,15,25,24.10
2018,09,05,15,26,24.10
2018,09,05,15,27,24.00
2018,09,05,15,28,24.10
2018,09,05,15,29,24.10
2018,09,05,15,30,24.10
2018,09,05,15,31,24.10
2018,09,05,15,32,24.10
2018,09,05,15,33,24.10
2018,09,05,15,34,24.10
2018,09,05,15,35,24.10
2018,09,05,15,36,24.20
2018,09,05,15,37,24.20
2018,09,05,15,38,24.30
2018,09,05,15,39,24.30
2018,09,05,15,40,24.30
2018,09,05,15,41,24.20
2018,09,05,15,42,24.20
2018,09,05,15,43,24.20
2018,09,05,15,44,24.10
2018,09,05,15,45,24.10
2018,09,05,15,46,24.10
2018,09,05,15,47,24.10
2018,09,05,15,48,24.10
2018,09,05,15,49,24.10
2018,09,05,15,50,24.10
2018,09,05,15,51,24.10
2018,09,05,15,52,24.20
2018,09,05,15,53,24.10
2018,09,05,15,54,24.10
2018,09,05,15,55,24.10
2018,09,05,15,56,24.20
2018,09,05,15,57,24.20
2018,09,05,15,58,24.30
2018,09,05,15,59,24.30
2018,09,05,16,00,24.30
2018,09,05,16,01,24.40
2018,09,05,16,02,24.40
2018,09,05,16,03,24.40
2018,09,05,16,04,24.30
2018,09,05,16,05,24.30
2018,09,05,16,06,24.30
2018,09,05,16,07,24.30
2018,09,05,16,08,24.30
2018,09,05,16,09,24.20
2018,09,05,16,10,24.20
2018,09,05,16,11,24.20
2018,09,05,16,12,24.20
2018,09,05,16,13,24.20
2018,09,05,16,14,24.20
2018,09,05,16,15,24.20
2018,09,05,16,16,24.30
2018,09,05,16,17,24.30
2018,09,05,16,18,24.30
2018,09,05,16,19,24.40
2018,09,05,16,20,24.40
2018,09,05,16,21,24.40
2018,09,05,16,22,24.50
2018,09,05,16,23,24.50
2018,09,05,16,24,24.60
2018,09,05,16,25,24.60
2018,09,05,16,26,24.70
2018,09,05,16,27,24.70
2018,09,05,16,28,24.70
2018,09,05,16,29,24.80
2018,09,05,16,30,24.80
2018,09,05,16,31,24.80
2018,09,05,16,32,24.90
2018,09,05,16,33,24.90
2018,09,05,16,34,24.90
2018,09,05,16,35,24.90
2018,09,05,16,36,24.90
2018,09,05,16,37,24.90
2018,09,05,16,38,25.00
2018,09,05,16,39,25.00
2018,09,05,16,40,25.00
2018,09,05,16,41,25.10
2018,09,05,16,42,25.10
2018,09,05,16,43,25.10
2018,09,05,16,44,25.20
2018,09,05,16,45,25.30
2018,09,05,16,46,25.30
2018,09,05,16,47,25.30
2018,09,05,16,48,25.30
2018,09,05,16,49,25.30
2018,09,05,16,50,25.30
2018,09,05,16,51,25.40
2018,09,05,16,52,25.40
2018,09,05,16,53,25.40
2018,09,05,16,54,25.40
2018,09,05,16,55,25.40
2018,09,05,16,56,25.40
2018,09,05,16,57,25.40
2018,09,05,16,58,25.50
2018,09,05,16,59,25.50
2018,09,05,17,00,25.40
2018,09,05,17,01,25.40
2018,09,05,17,02,25.40
2018,09,05,17,03,25.40
2018,09,05,17,04,25.40
2018,09,05,17,05,25.40
2018,09,05,17,06,25.50
2018,09,05,17,07,25.50
2018,09,05,17,08,25.50
2018,09,05,17,09,25.60
2018,09,05,17,10,25.60
2018,09,05,17,11,25.60
2018,09,05,17,12,25.50
2018,09,05,17,13,25.40
2018,09,05,17,14,25.30
2018,09,05,17,15,25.20
2018,09,05,17,16,25.10
2018,09,05,17,17,25.10
2018,09,05,17,18,25.00
2018,09,05,17,19,25.00